User: anonymous   Login
Location: Unspecified
(0.0000°N, 0.0000°E)
Time: 20:44:16
(UTC+00:00)
Language:

GALILEO 14 (26B) - Orbit

View from above orbital plane
View from above orbital plane
View from above satellite
View from above satellite

Ground track
Ground track

The orbit is defined by the following mean orbital elements,

1 41549U          26143.15990341 +.00000000 +00000-0 +00000-0 0 00004
2 41549  55.1018 222.3833 0002676 335.5312  24.5109  1.70474082    05
Epoch (UTC): 23 May 2026 03:50:15
Eccentricity: 0.0002676
inclination: 55.1018°
perigee height: 23214 km
apogee height: 23230 km
right ascension of ascending node: 222.3833°
argument of perigee: 335.5312°
revolutions per day: 1.70474082
mean anomaly at epoch: 24.5109°

The dashed part of the orbit path shows where the satellite is in the earth's shadow,  

DLR